TimeCDT,TemperatureF,Dew PointF,Humidity,Sea Level PressureIn,VisibilityMPH,Wind Direction,Wind SpeedMPH,Gust SpeedMPH,PrecipitationIn,Events,Conditions,WindDirDegrees,DateUTC
12:15 AM,51.1,50.0,96,29.88,10.0,East,5.8,-,N/A,,Unknown,100,2013-05-28 05:15:00
12:35 AM,50.9,49.6,95,29.87,10.0,East,6.9,-,N/A,,Unknown,90,2013-05-28 05:35:00
12:55 AM,50.9,49.6,95,29.86,7.0,East,6.9,-,N/A,,Unknown,80,2013-05-28 05:55:00
1:15 AM,50.9,50.0,97,29.86,7.0,East,6.9,-,N/A,,Unknown,90,2013-05-28 06:15:00
1:35 AM,50.9,50.0,97,29.85,7.0,East,4.6,-,N/A,,Unknown,80,2013-05-28 06:35:00
1:55 AM,51.1,50.0,96,29.83,7.0,East,6.9,-,N/A,,Unknown,90,2013-05-28 06:55:00
2:15 AM,51.1,50.0,96,29.82,7.0,East,5.8,-,N/A,,Unknown,80,2013-05-28 07:15:00
2:35 AM,50.9,50.0,97,29.81,7.0,ESE,6.9,-,N/A,,Unknown,110,2013-05-28 07:35:00
2:55 AM,50.9,50.0,97,29.81,5.0,East,8.1,-,N/A,,Mist,100,2013-05-28 07:55:00
3:15 AM,51.1,50.0,96,29.82,5.0,East,4.6,-,N/A,,Mist,90,2013-05-28 08:15:00
3:35 AM,51.1,50.0,96,29.81,5.0,East,4.6,-,N/A,,Mist,90,2013-05-28 08:35:00
3:55 AM,51.1,50.2,97,29.81,5.0,ENE,4.6,-,N/A,,Mist,70,2013-05-28 08:55:00
4:15 AM,51.1,50.2,97,29.80,5.0,East,4.6,-,N/A,,Mist,80,2013-05-28 09:15:00
4:35 AM,51.3,50.2,96,29.79,5.0,East,6.9,-,N/A,,Mist,80,2013-05-28 09:35:00
4:55 AM,51.3,50.2,96,29.79,5.0,East,8.1,-,N/A,,Mist,80,2013-05-28 09:55:00
5:15 AM,51.1,50.0,96,29.79,5.0,East,5.8,-,N/A,,Mist,80,2013-05-28 10:15:00
5:35 AM,51.3,50.4,97,29.79,5.0,East,4.6,-,N/A,,Mist,90,2013-05-28 10:35:00
5:55 AM,51.3,50.4,97,29.79,5.0,East,5.8,-,N/A,,Mist,80,2013-05-28 10:55:00
6:15 AM,51.3,50.4,97,29.79,5.0,East,8.1,-,N/A,,Mist,80,2013-05-28 11:15:00
6:35 AM,51.3,50.4,97,29.78,4.0,East,6.9,-,N/A,,Mist,80,2013-05-28 11:35:00
6:55 AM,51.3,50.4,97,29.78,4.0,East,6.9,-,N/A,Rain,Rain,90,2013-05-28 11:55:00
7:15 AM,51.3,50.4,97,29.78,5.0,East,4.6,-,N/A,Rain,Rain,90,2013-05-28 12:15:00
7:35 AM,51.4,50.5,97,29.75,2.5,East,5.8,-,0.02,Rain,Rain,80,2013-05-28 12:35:00
7:55 AM,51.8,50.7,96,29.75,7.0,East,6.9,-,0.02,,Unknown,90,2013-05-28 12:55:00
8:15 AM,52.2,50.9,95,29.75,10.0,ESE,11.5,-,N/A,,Unknown,110,2013-05-28 13:15:00
8:35 AM,52.0,50.9,96,29.76,10.0,ESE,9.2,-,N/A,Rain,Light Rain,110,2013-05-28 13:35:00
8:55 AM,52.3,51.1,95,29.75,10.0,ESE,8.1,-,N/A,Rain,Light Rain,110,2013-05-28 13:55:00
9:15 AM,53.1,51.6,95,29.75,10.0,East,10.4,-,N/A,Rain,Light Rain,100,2013-05-28 14:15:00
9:35 AM,53.1,51.4,94,29.75,10.0,East,5.8,-,N/A,Rain,Light Rain,90,2013-05-28 14:35:00
9:55 AM,53.6,51.8,94,29.75,10.0,Calm,Calm,-,N/A,,Light Drizzle,0,2013-05-28 14:55:00
10:15 AM,53.8,52.0,94,29.75,10.0,ENE,4.6,-,N/A,Rain,Light Rain,60,2013-05-28 15:15:00
10:35 AM,54.5,52.9,94,29.75,10.0,NE,3.5,-,N/A,,Unknown,40,2013-05-28 15:35:00
10:55 AM,54.7,52.7,93,29.75,10.0,ENE,4.6,-,N/A,,Unknown,60,2013-05-28 15:55:00
11:15 AM,55.8,53.6,92,29.75,10.0,NE,3.5,-,N/A,,Unknown,40,2013-05-28 16:15:00
11:35 AM,56.3,53.6,91,29.75,10.0,ENE,3.5,-,N/A,,Unknown,60,2013-05-28 16:35:00
11:55 AM,56.7,53.6,89,29.75,10.0,ENE,3.5,-,N/A,,Unknown,60,2013-05-28 16:55:00
12:15 PM,57.0,54.0,89,29.75,10.0,Calm,Calm,-,N/A,,Unknown,0,2013-05-28 17:15:00
12:35 PM,57.9,55.0,90,29.75,10.0,NE,3.5,-,N/A,,Unknown,40,2013-05-28 17:35:00
12:55 PM,58.3,55.0,89,29.75,10.0,Calm,Calm,-,N/A,,Unknown,0,2013-05-28 17:55:00
1:15 PM,59.2,55.4,87,29.74,10.0,East,3.5,-,N/A,,Unknown,90,2013-05-28 18:15:00
1:35 PM,60.4,55.9,85,29.74,10.0,East,4.6,-,N/A,,Unknown,80,2013-05-28 18:35:00
1:55 PM,62.1,56.1,81,29.74,10.0,ESE,4.6,-,N/A,,Unknown,110,2013-05-28 18:55:00
2:15 PM,61.5,55.4,80,29.74,10.0,East,6.9,-,N/A,,Unknown,100,2013-05-28 19:15:00
2:35 PM,61.7,55.8,81,29.74,10.0,East,4.6,-,N/A,,Unknown,90,2013-05-28 19:35:00
2:55 PM,62.2,55.8,79,29.74,10.0,ENE,4.6,-,N/A,,Unknown,70,2013-05-28 19:55:00
3:15 PM,61.9,56.1,81,29.75,10.0,NE,3.5,-,N/A,,Unknown,50,2013-05-28 20:15:00
3:35 PM,61.7,56.3,82,29.75,10.0,North,4.6,-,N/A,,Unknown,10,2013-05-28 20:35:00
3:55 PM,61.2,56.3,84,29.76,10.0,NNE,4.6,-,N/A,,Unknown,30,2013-05-28 20:55:00
4:15 PM,61.0,56.3,85,29.76,10.0,NE,6.9,-,N/A,,Unknown,40,2013-05-28 21:15:00
4:35 PM,60.8,56.3,85,29.75,10.0,NE,5.8,-,N/A,,Unknown,40,2013-05-28 21:35:00
4:55 PM,61.0,56.3,85,29.76,10.0,East,3.5,-,N/A,,Unknown,100,2013-05-28 21:55:00
5:15 PM,61.0,56.3,85,29.76,10.0,Calm,Calm,-,N/A,,Unknown,0,2013-05-28 22:15:00
5:35 PM,60.8,56.3,85,29.76,10.0,Calm,Calm,-,N/A,,Unknown,0,2013-05-28 22:35:00
5:55 PM,61.7,56.7,84,29.77,10.0,East,3.5,-,N/A,,Unknown,90,2013-05-28 22:55:00
6:15 PM,61.9,56.8,84,29.76,10.0,Calm,Calm,-,N/A,,Unknown,0,2013-05-28 23:15:00
6:35 PM,61.9,57.2,85,29.77,10.0,Calm,Calm,-,N/A,,Unknown,0,2013-05-28 23:35:00
6:55 PM,62.1,57.4,85,29.75,7.0,East,3.5,-,N/A,,Unknown,80,2013-05-28 23:55:00
7:15 PM,61.7,57.4,86,29.73,7.0,Calm,Calm,-,N/A,,Unknown,0,2013-05-29 00:15:00
7:35 PM,61.0,58.1,90,29.72,7.0,Calm,Calm,-,N/A,,Unknown,0,2013-05-29 00:35:00
7:55 PM,61.5,58.3,89,29.74,7.0,Calm,Calm,-,N/A,,Unknown,0,2013-05-29 00:55:00
8:15 PM,60.1,57.7,92,29.72,7.0,North,3.5,-,N/A,,Unknown,10,2013-05-29 01:15:00
8:35 PM,59.9,58.1,94,29.74,7.0,SE,3.5,-,N/A,,Unknown,140,2013-05-29 01:35:00
8:55 PM,60.1,58.1,93,29.76,7.0,SE,4.6,-,N/A,,Unknown,140,2013-05-29 01:55:00
9:15 PM,60.4,58.3,93,29.78,7.0,Calm,Calm,-,N/A,,Unknown,0,2013-05-29 02:15:00
9:35 PM,60.3,58.3,93,29.77,7.0,ESE,3.5,-,N/A,,Unknown,110,2013-05-29 02:35:00
9:55 PM,60.1,58.3,94,29.77,7.0,East,3.5,-,N/A,,Unknown,90,2013-05-29 02:55:00
10:15 PM,60.1,58.3,94,29.78,7.0,Calm,Calm,-,N/A,,Unknown,0,2013-05-29 03:15:00
10:35 PM,60.1,58.3,94,29.79,7.0,Calm,Calm,-,N/A,,Unknown,0,2013-05-29 03:35:00
10:55 PM,59.9,58.3,94,29.79,5.0,Calm,Calm,-,N/A,,Mist,0,2013-05-29 03:55:00
11:15 PM,59.5,58.3,96,29.78,5.0,Calm,Calm,-,N/A,,Mist,0,2013-05-29 04:15:00
11:35 PM,59.2,58.1,96,29.80,5.0,Calm,Calm,-,N/A,,Mist,0,2013-05-29 04:35:00
11:55 PM,59.4,58.3,96,29.81,5.0,Calm,Calm,-,N/A,,Mist,0,2013-05-29 04:55:00